Location: Unspecified
(0.0000°N, 0.0000°E)
Time: 16:20:16
(UTC+00:00)

Altair - Pass Details

Date: 21 November 2019
Orbit: 1502 x 1682 km, 47.2° (Epoch: 12 December)

Event Time Altitude Azimuth Distance (km) Brightness Sun altitude
Rises 11:37:04 0° 313° (NW) 4,755 9.9 70.0°
Reaches altitude 10° 11:40:08 10° 310° (NW) 3,796 9.6 70.0°
Maximum altitude 11:49:42 63° 231° (SW) 1,788 9.6 70.1°
Drops below altitude 10° 11:59:38 10° 151° (SSE) 3,926 10.0 69.8°
Sets 12:02:53 0° 147° (SSE) 4,926 10.4 69.7°
